,,Stat6,,Stat2,,Stat8,,Stat9,,Stat10,,Wind1,,Wind1,
time,status,PA1M_AVG,status,PR1M_SUM,status,RH1M_AVG,status,SR1M_AVG,status,TA1M_AVG,status,W1dAve1m,status,W1sAve1m,
2006-04-15, 00:00:00,VALID,917.221,VALID,0,VALID,95.8345,VALID,-0.101885,VALID,18.8301,VALID,132,VALID,1.34133,
2006-04-15, 00:01:00,VALID,917.238,VALID,0,VALID,95.8993,VALID,-0.101885,VALID,19.0737,VALID,116,VALID,1.26882,
2006-04-15, 00:02:00,VALID,917.249,VALID,0,VALID,96.057,VALID,-0.118866,VALID,18.8997,VALID,122,VALID,1.45998,
2006-04-15, 00:03:00,VALID,917.281,VALID,0,VALID,96.1727,VALID,-0.20377,VALID,19.783,VALID,114,VALID,1.33008,
2006-04-15, 00:04:00,VALID,917.304,VALID,0,VALID,96.3647,VALID,-0.20377,VALID,18.9724,VALID,112,VALID,1.35087,
2006-04-15, 00:05:00,VALID,917.322,VALID,0,VALID,96.6521,VALID,-0.20377,VALID,18.9733,VALID,87,VALID,1.03452,
2006-04-15, 00:06:00,VALID,917.365,VALID,0,VALID,96.9865,VALID,-0.186789,VALID,19.2301,VALID,89,VALID,0.844336,
2006-04-15, 00:07:00,VALID,917.371,VALID,0,VALID,97.0654,VALID,-0.101885,VALID,18.9578,VALID,93,VALID,1.38832,
2006-04-15, 00:08:00,VALID,917.389,VALID,0,VALID,97.1658,VALID,-0.135847,VALID,19.0607,VALID,82,VALID,1.13053,
2006-04-15, 00:09:00,VALID,917.403,VALID,0,VALID,97.3896,VALID,-0.20377,VALID,19.1708,VALID,85,VALID,0.368902,
2006-04-15, 00:10:00,VALID,917.411,VALID,0,VALID,97.4748,VALID,-0.20377,VALID,18.2041,VALID,85,VALID,0.217634,
2006-04-15, 00:11:00,VALID,917.427,VALID,0,VALID,97.5524,VALID,-0.118866,VALID,19.2571,VALID,83,VALID,0.310156,
2006-04-15, 00:12:00,VALID,917.443,VALID,0,VALID,97.7622,VALID,-0.101885,VALID,18.2855,VALID,81,VALID,0.210211,
2006-04-15, 00:13:00,VALID,917.454,VALID,0,VALID,98.0153,VALID,-0.135847,VALID,19.0379,VALID,81,VALID,0.310138,
2006-04-15, 00:14:00,VALID,917.466,VALID,0,VALID,98.0572,VALID,-0.101885,VALID,18.9971,VALID,79,VALID,0.482118,
2006-04-15, 00:15:00,VALID,917.477,VALID,0,VALID,98.0687,VALID,-0.101885,VALID,18.7843,VALID,79,VALID,0.571289,
2006-04-15, 00:16:00,VALID,917.471,VALID,0,VALID,98.0191,VALID,-0.118866,VALID,18.0502,VALID,79,VALID,0.772135,
2006-04-15, 00:17:00,VALID,917.493,VALID,0,VALID,98.1132,VALID,-0.20377,VALID,18.4486,VALID,86,VALID,0.844105,
2006-04-15, 00:18:00,VALID,917.509,VALID,0,VALID,98.1641,VALID,-0.169808,VALID,18.7104,VALID,91,VALID,0.991443,
2006-04-15, 00:19:00,VALID,917.528,VALID,0,VALID,98.2149,VALID,-0.169808,VALID,18.5458,VALID,100,VALID,1.09557,
2006-04-15, 00:20:00,VALID,917.543,VALID,0,VALID,98.281,VALID,-0.186789,VALID,18.9226,VALID,105,VALID,1.26086,
2006-04-15, 00:21:00,VALID,917.58,VALID,0,VALID,98.3421,VALID,-0.186789,VALID,18.9152,VALID,102,VALID,1.00745,
2006-04-15, 00:22:00,VALID,917.59,VALID,0,VALID,98.3955,VALID,-0.152827,VALID,18.2451,VALID,88,VALID,0.965972,
2006-04-15, 00:23:00,VALID,917.615,VALID,0,VALID,98.4629,VALID,-0.135847,VALID,19.2256,VALID,76,VALID,0.781064,
2006-04-15, 00:24:00,VALID,917.629,VALID,0,VALID,98.5506,VALID,-0.186789,VALID,18.378,VALID,65,VALID,0.781076,
2006-04-15, 00:25:00,VALID,917.659,VALID,0,VALID,98.8253,VALID,-0.169808,VALID,19.3764,VALID,39,VALID,0.970796,
2006-04-15, 00:26:00,VALID,917.669,VALID,0,VALID,98.9461,VALID,-0.237732,VALID,19.3459,VALID,31,VALID,0.980841,
2006-04-15, 00:27:00,VALID,917.694,VALID,0,VALID,99.0364,VALID,-0.271693,VALID,19.2094,VALID,37,VALID,0.80564,
2006-04-15, 00:28:00,VALID,917.716,VALID,0,VALID,99.0415,VALID,-0.152827,VALID,18.5717,VALID,50,VALID,0.924479,
2006-04-15, 00:29:00,VALID,917.744,VALID,0,VALID,99.0529,VALID,-0.186789,VALID,19.4291,VALID,74,VALID,0.931362,
2006-04-15, 00:30:00,VALID,917.763,VALID,0,VALID,99.0097,VALID,-0.254712,VALID,19.1082,VALID,85,VALID,0.902344,
2006-04-15, 00:31:00,VALID,917.784,VALID,0,VALID,99.0555,VALID,-0.254712,VALID,18.0844,VALID,90,VALID,1.01944,
2006-04-15, 00:32:00,VALID,917.801,VALID,0,VALID,99.0911,VALID,-0.271693,VALID,18.7284,VALID,98,VALID,0.996838,
2006-04-15, 00:33:00,VALID,917.83,VALID,0,VALID,99.1267,VALID,-0.237732,VALID,18.6505,VALID,104,VALID,1.01209,
2006-04-15, 00:34:00,VALID,917.841,VALID,0,VALID,99.2297,VALID,-0.152827,VALID,18.7764,VALID,122,VALID,1.1436,
2006-04-15, 00:35:00,VALID,917.85,VALID,0,VALID,99.3873,VALID,-0.220751,VALID,18.9033,VALID,129,VALID,1.04855,
2006-04-15, 00:36:00,VALID,917.867,VALID,0,VALID,99.4535,VALID,-0.20377,VALID,18.949,VALID,128,VALID,1.08703,
2006-04-15, 00:37:00,VALID,917.878,VALID,0,VALID,99.4191,VALID,-0.220751,VALID,18.4496,VALID,136,VALID,1.19874,
2006-04-15, 00:38:00,VALID,917.896,VALID,0,VALID,99.4153,VALID,-0.220751,VALID,18.5734,VALID,129,VALID,1.06795,
2006-04-15, 00:39:00,VALID,917.922,VALID,0,VALID,99.3899,VALID,-0.220751,VALID,19.15,VALID,134,VALID,0.933036,
2006-04-15, 00:40:00,VALID,917.949,VALID,0,VALID,99.3912,VALID,-0.20377,VALID,18.9125,VALID,129,VALID,1.25,
2006-04-15, 00:41:00,VALID,917.983,VALID,0,VALID,99.3708,VALID,-0.152827,VALID,18.9218,VALID,131,VALID,1.37652,
2006-04-15, 00:42:00,VALID,918.013,VALID,0,VALID,99.4217,VALID,-0.135847,VALID,17.9679,VALID,128,VALID,1.12309,
2006-04-15, 00:43:00,VALID,918.042,VALID,0,VALID,99.4153,VALID,-0.135847,VALID,18.6427,VALID,134,VALID,1.13317,
2006-04-15, 00:44:00,VALID,918.085,VALID,0,VALID,99.4001,VALID,-0.118866,VALID,18.378,VALID,130,VALID,1.35499,
2006-04-15, 00:45:00,VALID,918.11,VALID,0,VALID,99.4433,VALID,-0.135847,VALID,18.448,VALID,122,VALID,1.29192,
2006-04-15, 00:46:00,VALID,918.134,VALID,0,VALID,99.4827,VALID,-0.118866,VALID,18.1023,VALID,129,VALID,1.54936,
2006-04-15, 00:47:00,VALID,918.168,VALID,0,VALID,99.6302,VALID,-0.152827,VALID,18.261,VALID,126,VALID,1.50153,
2006-04-15, 00:48:00,VALID,918.18,VALID,0,VALID,99.751,VALID,-0.186789,VALID,18.5332,VALID,127,VALID,1.64335,
2006-04-15, 00:49:00,VALID,918.229,VALID,0,VALID,99.84,VALID,-0.20377,VALID,18.6212,VALID,127,VALID,1.68786,
2006-04-15, 00:50:00,VALID,918.253,VALID,0,VALID,99.8553,VALID,-0.169808,VALID,18.436,VALID,132,VALID,1.36354,
2006-04-15, 00:51:00,VALID,918.289,VALID,0,VALID,99.8197,VALID,-0.135847,VALID,18.2929,VALID,131,VALID,1.73196,
2006-04-15, 00:52:00,VALID,918.312,VALID,0,VALID,99.7701,VALID,-0.135847,VALID,18.7782,VALID,136,VALID,1.34357,
2006-04-15, 00:53:00,VALID,918.343,VALID,0,VALID,99.6709,VALID,-0.118866,VALID,18.569,VALID,130,VALID,1.20666,
2006-04-15, 00:54:00,VALID,918.366,VALID,0,VALID,99.5412,VALID,-0.135847,VALID,18.862,VALID,140,VALID,1.5536,
2006-04-15, 00:55:00,VALID,918.384,VALID,0,VALID,99.4814,VALID,-0.254712,VALID,19.1963,VALID,134,VALID,1.28414,
2006-04-15, 00:56:00,VALID,918.407,VALID,0,VALID,99.4687,VALID,-0.20377,VALID,18.4651,VALID,122,VALID,1.23177,
2006-04-15, 00:57:00,VALID,918.427,VALID,0,VALID,99.484,VALID,-0.20377,VALID,18.5394,VALID,127,VALID,1.05605,
2006-04-15, 00:58:00,VALID,918.441,VALID,0,VALID,99.4725,VALID,-0.20377,VALID,17.5875,VALID,133,VALID,1.1143,
2006-04-15, 00:59:00,VALID,918.448,VALID,0,VALID,99.4001,VALID,-0.20377,VALID,18.383,VALID,134,VALID,1.30907,
2006-04-15, 01:00:00,VALID,918.471,VALID,0,VALID,99.2818,VALID,-0.20377,VALID,18.9691,VALID,134,VALID,1.33819,
2006-04-15, 01:01:00,VALID,918.489,VALID,0,VALID,99.0949,VALID,-0.169808,VALID,18.5096,VALID,129,VALID,1.22284,
2006-04-15, 01:02:00,VALID,918.517,VALID,0,VALID,98.9639,VALID,-0.118866,VALID,19.1569,VALID,127,VALID,0.912364,
2006-04-15, 01:03:00,VALID,918.549,VALID,0,VALID,98.8507,VALID,-0.101885,VALID,19.1035,VALID,118,VALID,0.740945,
2006-04-15, 01:04:00,VALID,918.595,VALID,0,VALID,98.6854,VALID,-0.135847,VALID,18.9718,VALID,112,VALID,0.69549,
2006-04-15, 01:05:00,VALID,918.62,VALID,0,VALID,98.6981,VALID,-0.20377,VALID,18.2527,VALID,112,VALID,0.311806,
2006-04-15, 01:06:00,VALID,918.644,VALID,0,VALID,98.6969,VALID,-0.20377,VALID,19.6121,VALID,114,VALID,0.360465,
2006-04-15, 01:07:00,VALID,918.663,VALID,0,VALID,98.6994,VALID,-0.20377,VALID,18.8022,VALID,117,VALID,0.446265,
2006-04-15, 01:08:00,VALID,918.699,VALID,0,VALID,98.7821,VALID,-0.20377,VALID,18.8588,VALID,121,VALID,0.234375,
2006-04-15, 01:09:00,VALID,918.71,VALID,0,VALID,98.7477,VALID,-0.20377,VALID,17.653,VALID,152,VALID,0.573401,
2006-04-15, 01:10:00,VALID,918.715,VALID,0.2,VALID,98.763,VALID,-0.20377,VALID,18.0911,VALID,154,VALID,0.580729,
2006-04-15, 01:11:00,VALID,918.719,VALID,0,VALID,98.7312,VALID,-0.220751,VALID,18.6685,VALID,164,VALID,0.385298,
2006-04-15, 01:12:00,VALID,918.723,VALID,0,VALID,98.7185,VALID,-0.186789,VALID,18.7325,VALID,165,VALID,0.569404,
2006-04-15, 01:13:00,VALID,918.725,VALID,0,VALID,98.8164,VALID,-0.118866,VALID,19.2142,VALID,158,VALID,0.588246,
2006-04-15, 01:14:00,VALID,918.724,VALID,0,VALID,98.838,VALID,-0.118866,VALID,18.3001,VALID,158,VALID,0.415661,
2006-04-15, 01:15:00,VALID,918.737,VALID,0,VALID,98.9766,VALID,-0.152827,VALID,18.5996,VALID,158,VALID,0.335007,
2006-04-15, 01:16:00,VALID,918.743,VALID,0,VALID,99.0198,VALID,-0.118866,VALID,18.9198,VALID,158,VALID,0.511161,
2006-04-15, 01:17:00,VALID,918.785,VALID,0,VALID,99.1674,VALID,-0.101885,VALID,19.4855,VALID,120,VALID,0.427148,
2006-04-15, 01:18:00,VALID,918.801,VALID,0,VALID,99.1724,VALID,-0.118866,VALID,19.1474,VALID,108,VALID,0.691406,
2006-04-15, 01:19:00,VALID,918.82,VALID,0,VALID,99.0567,VALID,-0.152827,VALID,18.9602,VALID,151,VALID,0.652616,
2006-04-15, 01:20:00,VALID,918.832,VALID,0,VALID,99.0275,VALID,-0.220751,VALID,18.2908,VALID,158,VALID,0.32706,
2006-04-15, 01:21:00,VALID,918.845,VALID,0,VALID,99.1012,VALID,-0.237732,VALID,18.4726,VALID,167,VALID,0.327951,
2006-04-15, 01:22:00,VALID,918.854,VALID,0,VALID,99.0364,VALID,-0.118866,VALID,19.322,VALID,194,VALID,0.671148,
2006-04-15, 01:23:00,VALID,918.866,VALID,0,VALID,98.8291,VALID,-0.169808,VALID,19.2077,VALID,210,VALID,0.745236,
2006-04-15, 01:24:00,VALID,918.89,VALID,0,VALID,98.7439,VALID,-0.152827,VALID,18.5602,VALID,213,VALID,0.276278,
2006-04-15, 01:25:00,VALID,918.893,VALID,0,VALID,98.6752,VALID,-0.237732,VALID,18.3328,VALID,213,VALID,0.314931,
2006-04-15, 01:26:00,VALID,918.904,VALID,0,VALID,98.571,VALID,-0.254712,VALID,18.7211,VALID,217,VALID,0.426417,
2006-04-15, 01:27:00,VALID,918.905,VALID,0,VALID,98.6574,VALID,-0.20377,VALID,18.4584,VALID,198,VALID,0.306974,
2006-04-15, 01:28:00,VALID,918.902,VALID,0,VALID,98.81,VALID,-0.118866,VALID,18.5802,VALID,185,VALID,0.153011,
2006-04-15, 01:29:00,VALID,918.91,VALID,0,VALID,98.7007,VALID,-0.152827,VALID,18.1571,VALID,188,VALID,0.555051,
2006-04-15, 01:30:00,VALID,918.914,VALID,0,VALID,98.5964,VALID,-0.135847,VALID,19.0772,VALID,216,VALID,1.01816,
2006-04-15, 01:31:00,VALID,918.928,VALID,0,VALID,98.6435,VALID,-0.271693,VALID,19.7002,VALID,211,VALID,1.21475,
2006-04-15, 01:32:00,VALID,918.927,VALID,0,VALID,98.7554,VALID,-0.220751,VALID,18.3319,VALID,211,VALID,1.47496,
2006-04-15, 01:33:00,VALID,918.946,VALID,0,VALID,98.913,VALID,-0.135847,VALID,18.7926,VALID,203,VALID,0.976172,
2006-04-15, 01:34:00,VALID,918.953,VALID,0,VALID,98.9741,VALID,-0.118866,VALID,17.8514,VALID,199,VALID,0.794829,
2006-04-15, 01:35:00,VALID,918.952,VALID,0,VALID,99.1076,VALID,-0.169808,VALID,19.2154,VALID,199,VALID,1.0585,
2006-04-15, 01:36:00,VALID,918.962,VALID,0,VALID,99.1496,VALID,-0.135847,VALID,18.7461,VALID,194,VALID,1.26126,
2006-04-15, 01:37:00,VALID,918.969,VALID,0,VALID,99.1839,VALID,-0.135847,VALID,18.9352,VALID,205,VALID,0.950149,
2006-04-15, 01:38:00,VALID,918.983,VALID,0,VALID,99.2309,VALID,-0.169808,VALID,18.6048,VALID,203,VALID,0.663336,
2006-04-15, 01:39:00,VALID,919.002,VALID,0,VALID,99.311,VALID,-0.152827,VALID,18.7084,VALID,190,VALID,0.634055,
2006-04-15, 01:40:01,VALID,919.009,VALID,0,VALID,99.3098,VALID,-0.152827,VALID,18.1235,VALID,194,VALID,0.692894,
2006-04-15, 01:41:00,VALID,919.013,VALID,0,VALID,99.3708,VALID,-0.152827,VALID,17.8641,VALID,206,VALID,0.598157,
2006-04-15, 01:42:00,VALID,919.029,VALID,0,VALID,99.4916,VALID,-0.186789,VALID,18.2241,VALID,201,VALID,0.444618,
2006-04-15, 01:43:00,VALID,919.031,VALID,0,VALID,99.4942,VALID,-0.152827,VALID,17.7639,VALID,180,VALID,0.524581,
2006-04-15, 01:44:00,VALID,919.036,VALID,0.2,VALID,99.5577,VALID,-0.186789,VALID,18.3469,VALID,150,VALID,0.303163,
2006-04-15, 01:45:00,VALID,919.041,VALID,0,VALID,99.5946,VALID,-0.20377,VALID,18.8641,VALID,158,VALID,0.360137,
2006-04-15, 01:46:00,VALID,919.044,VALID,0,VALID,99.676,VALID,-0.288674,VALID,18.5345,VALID,160,VALID,0.630208,
2006-04-15, 01:47:00,VALID,919.041,VALID,0,VALID,99.7065,VALID,-0.288674,VALID,18.169,VALID,157,VALID,0.367708,
2006-04-15, 01:48:00,VALID,919.055,VALID,0,VALID,99.826,VALID,-0.20377,VALID,18.5475,VALID,140,VALID,0.442708,
2006-04-15, 01:49:00,VALID,919.061,VALID,0,VALID,99.8947,VALID,-0.186789,VALID,18.6948,VALID,146,VALID,0.462391,
2006-04-15, 01:50:01,VALID,919.062,VALID,0,VALID,99.9278,VALID,-0.186789,VALID,18.0585,VALID,161,VALID,0.472565,
2006-04-15, 01:51:00,VALID,919.075,VALID,0,VALID,99.9926,VALID,-0.186789,VALID,17.5374,VALID,161,VALID,0.540698,
2006-04-15, 01:52:00,VALID,919.081,VALID,0,VALID,100,VALID,-0.186789,VALID,18.5559,VALID,143,VALID,0.808949,
2006-04-15, 01:53:00,VALID,919.099,VALID,0,VALID,100,VALID,-0.169808,VALID,18.3371,VALID,142,VALID,0.468378,
2006-04-15, 01:54:00,VALID,919.106,VALID,0,VALID,100,VALID,-0.152827,VALID,18.6137,VALID,118,VALID,0.673874,
2006-04-15, 01:55:01,VALID,919.103,VALID,0,VALID,99.9842,VALID,-0.237732,VALID,18.7262,VALID,106,VALID,0.997396,
2006-04-15, 01:56:01,VALID,919.123,VALID,0,VALID,99.988,VALID,-0.237732,VALID,18.3737,VALID,120,VALID,1.32813,
2006-04-15, 01:57:00,VALID,919.129,VALID,0,VALID,99.9278,VALID,-0.186789,VALID,19.2964,VALID,106,VALID,0.922656,
2006-04-15, 01:58:01,VALID,919.12,VALID,0,VALID,99.9568,VALID,-0.118866,VALID,17.6719,VALID,114,VALID,1.14789,
2006-04-15, 01:59:00,VALID,919.136,VALID,0,VALID,100,VALID,-0.152827,VALID,18.6277,VALID,124,VALID,1.36626,
2006-04-15, 02:00:00,VALID,919.13,VALID,0,VALID,99.999,VALID,-0.237732,VALID,19.0937,VALID,129,VALID,1.02362,
2006-04-15, 02:01:01,VALID,919.129,VALID,0,VALID,99.999,VALID,-0.20377,VALID,18.7633,VALID,132,VALID,1.07262,
2006-04-15, 02:02:00,VALID,919.146,VALID,0,VALID,100,VALID,-0.186789,VALID,18.8045,VALID,147,VALID,1.07685,
2006-04-15, 02:03:01,VALID,919.139,VALID,0,VALID,100,VALID,-0.152827,VALID,18.8085,VALID,152,VALID,0.687881,
2006-04-15, 02:04:00,VALID,919.163,VALID,0,VALID,100,VALID,-0.118866,VALID,19.0707,VALID,164,VALID,0.71875,
2006-04-15, 02:05:00,VALID,919.152,VALID,0,VALID,100,VALID,-0.118866,VALID,19.0691,VALID,159,VALID,0.566319,
2006-04-15, 02:06:00,VALID,919.169,VALID,0,VALID,100,VALID,-0.20377,VALID,19.1658,VALID,148,VALID,0.678735,
2006-04-15, 02:07:00,VALID,919.185,VALID,0,VALID,100,VALID,-0.237732,VALID,19.5089,VALID,152,VALID,0.690104,
2006-04-15, 02:08:00,VALID,919.176,VALID,0,VALID,100,VALID,-0.254712,VALID,17.8525,VALID,143,VALID,0.589931,
2006-04-15, 02:09:00,VALID,919.189,VALID,0.2,VALID,100,VALID,-0.237732,VALID,18.2134,VALID,148,VALID,0.486662,
2006-04-15, 02:10:00,VALID,919.181,VALID,0,VALID,100,VALID,-0.271693,VALID,19.7814,VALID,130,VALID,0.439757,
2006-04-15, 02:11:00,VALID,919.19,VALID,0,VALID,100,VALID,-0.20377,VALID,19.2851,VALID,140,VALID,0.757227,
2006-04-15, 02:12:01,VALID,919.188,VALID,0,VALID,100,VALID,-0.220751,VALID,18.81,VALID,135,VALID,0.680778,
2006-04-15, 02:13:01,VALID,919.191,VALID,0,VALID,100,VALID,-0.237732,VALID,18.8141,VALID,133,VALID,0.436773,
2006-04-15, 02:14:01,VALID,919.191,VALID,0,VALID,100,VALID,-0.237732,VALID,18.6064,VALID,125,VALID,0.58754,
2006-04-15, 02:15:01,VALID,919.184,VALID,0,VALID,100,VALID,-0.20377,VALID,18.1668,VALID,144,VALID,0.531445,
2006-04-15, 02:16:00,VALID,919.181,VALID,0,VALID,100,VALID,-0.237732,VALID,18.3202,VALID,151,VALID,0.911577,
2006-04-15, 02:17:00,VALID,919.17,VALID,0,VALID,100,VALID,-0.220751,VALID,18.26,VALID,145,VALID,1.02753,
2006-04-15, 02:18:01,VALID,919.184,VALID,0,VALID,100,VALID,-0.20377,VALID,19.2494,VALID,151,VALID,0.830664,
2006-04-15, 02:19:00,VALID,919.183,VALID,0,VALID,100,VALID,-0.20377,VALID,19.0737,VALID,137,VALID,0.860863,
2006-04-15, 02:20:00,VALID,919.181,VALID,0,VALID,100,VALID,-0.20377,VALID,18.8628,VALID,142,VALID,0.910714,
2006-04-15, 02:21:00,VALID,919.181,VALID,0,VALID,100,VALID,-0.220751,VALID,17.7809,VALID,144,VALID,0.960574,
2006-04-15, 02:22:01,VALID,919.19,VALID,0,VALID,100,VALID,-0.237732,VALID,18.4297,VALID,149,VALID,0.786222,
2006-04-15, 02:23:00,VALID,919.188,VALID,0,VALID,100,VALID,-0.237732,VALID,18.5895,VALID,152,VALID,0.50465,
2006-04-15, 02:24:00,VALID,919.192,VALID,0,VALID,100,VALID,-0.135847,VALID,18.8138,VALID,153,VALID,0.78853,
2006-04-15, 02:25:01,VALID,919.196,VALID,0,VALID,100,VALID,-0.169808,VALID,18.6743,VALID,155,VALID,0.875953,
2006-04-15, 02:26:00,VALID,919.19,VALID,0,VALID,100,VALID,-0.152827,VALID,17.8506,VALID,156,VALID,0.876116,
2006-04-15, 02:27:00,VALID,919.187,VALID,0,VALID,100,VALID,-0.237732,VALID,18.923,VALID,149,VALID,0.93968,
2006-04-15, 02:28:00,VALID,919.186,VALID,0,VALID,100,VALID,-0.717609,VALID,18.1954,VALID,158,VALID,1.08921,
2006-04-15, 02:29:00,VALID,919.178,VALID,0,VALID,100,VALID,-0.135847,VALID,18.3806,VALID,158,VALID,0.892078,
2006-04-15, 02:30:00,VALID,919.176,VALID,0,VALID,100,VALID,-0.135847,VALID,18.3451,VALID,152,VALID,1.11787,
2006-04-15, 02:31:01,VALID,919.158,VALID,0,VALID,100,VALID,-0.152827,VALID,18.373,VALID,138,VALID,1.19093,
2006-04-15, 02:32:01,VALID,919.162,VALID,0,VALID,100,VALID,-0.135847,VALID,18.1285,VALID,136,VALID,1.28338,
2006-04-15, 02:33:01,VALID,919.141,VALID,0,VALID,100,VALID,-0.135847,VALID,18.1015,VALID,139,VALID,1.58798,
2006-04-15, 02:34:00,VALID,919.139,VALID,0,VALID,100,VALID,-0.135847,VALID,18.3693,VALID,145,VALID,1.53462,
2006-04-15, 02:35:00,VALID,919.128,VALID,0,VALID,100,VALID,-0.237732,VALID,19.2932,VALID,137,VALID,1.29613,
2006-04-15, 02:36:01,VALID,919.118,VALID,0,VALID,100,VALID,-0.254712,VALID,18.3034,VALID,134,VALID,1.60665,
2006-04-15, 02:37:01,VALID,919.109,VALID,0,VALID,100,VALID,-0.288674,VALID,18.1379,VALID,128,VALID,1.3363,
2006-04-15, 02:38:00,VALID,919.094,VALID,0,VALID,100,VALID,-0.186789,VALID,18.4028,VALID,131,VALID,1.56641,
2006-04-15, 02:39:00,VALID,919.102,VALID,0,VALID,100,VALID,-0.118866,VALID,19.1307,VALID,125,VALID,1.21989,
2006-04-15, 02:40:00,VALID,919.103,VALID,0,VALID,100,VALID,-0.135847,VALID,19.0707,VALID,125,VALID,1.39935,
2006-04-15, 02:41:01,VALID,919.106,VALID,0,VALID,100,VALID,-0.271693,VALID,19.2402,VALID,131,VALID,1.10857,
2006-04-15, 02:42:00,VALID,919.101,VALID,0,VALID,100,VALID,-0.237732,VALID,18.572,VALID,122,VALID,1.13077,
2006-04-15, 02:43:01,VALID,919.106,VALID,0,VALID,100,VALID,-0.237732,VALID,19.0729,VALID,133,VALID,0.947731,
2006-04-15, 02:44:00,VALID,919.1,VALID,0,VALID,100,VALID,-0.220751,VALID,18.839,VALID,123,VALID,1.07754,
2006-04-15, 02:45:00,VALID,919.081,VALID,0,VALID,100,VALID,-0.135847,VALID,18.6961,VALID,131,VALID,1.44713,
2006-04-15, 02:46:00,VALID,919.078,VALID,0,VALID,100,VALID,-0.169808,VALID,18.1117,VALID,132,VALID,1.89299,
2006-04-15, 02:47:00,VALID,919.075,VALID,0,VALID,100,VALID,-0.186789,VALID,18.8815,VALID,144,VALID,1.11659,
2006-04-15, 02:48:01,VALID,919.073,VALID,0,VALID,100,VALID,-0.152827,VALID,18.486,VALID,143,VALID,1.51953,
2006-04-15, 02:49:00,VALID,919.062,VALID,0,VALID,100,VALID,-0.135847,VALID,19.2796,VALID,139,VALID,1.92473,
2006-04-15, 02:50:00,VALID,919.055,VALID,0,VALID,100,VALID,-0.135847,VALID,19.0437,VALID,150,VALID,1.32177,
2006-04-15, 02:51:00,VALID,919.06,VALID,0,VALID,100,VALID,-0.169808,VALID,19.0603,VALID,137,VALID,1.18555,
2006-04-15, 02:52:01,VALID,919.062,VALID,0,VALID,100,VALID,-0.254712,VALID,18.4524,VALID,125,VALID,1.32336,
2006-04-15, 02:53:00,VALID,919.052,VALID,0,VALID,100,VALID,-0.220751,VALID,18.4588,VALID,144,VALID,1.48382,
2006-04-15, 02:54:00,VALID,919.041,VALID,0,VALID,100,VALID,-0.135847,VALID,17.8796,VALID,132,VALID,1.21931,
2006-04-15, 02:55:01,VALID,919.03,VALID,0,VALID,100,VALID,-0.220751,VALID,18.2564,VALID,132,VALID,1.97999,
2006-04-15, 02:56:00,VALID,919.037,VALID,0,VALID,100,VALID,-0.220751,VALID,18.2077,VALID,127,VALID,1.36101,
2006-04-15, 02:57:00,VALID,919.017,VALID,0,VALID,100,VALID,-0.186789,VALID,18.7729,VALID,127,VALID,1.4295,
2006-04-15, 02:58:01,VALID,919.004,VALID,0,VALID,100,VALID,-0.186789,VALID,18.3437,VALID,125,VALID,1.9207,
2006-04-15, 02:59:00,VALID,918.991,VALID,0,VALID,100,VALID,-0.254712,VALID,18.9194,VALID,119,VALID,1.754,
2006-04-15, 03:00:01,VALID,918.978,VALID,0,VALID,100,VALID,-0.254712,VALID,18.2641,VALID,130,VALID,1.75545,
2006-04-15, 03:01:00,VALID,918.967,VALID,0,VALID,100,VALID,-0.237732,VALID,18.3425,VALID,127,VALID,1.76672,
2006-04-15, 03:02:00,VALID,918.969,VALID,0,VALID,100,VALID,-0.271693,VALID,18.6324,VALID,122,VALID,1.05887,
2006-04-15, 03:03:00,VALID,918.945,VALID,0,VALID,100,VALID,-0.220751,VALID,19.3247,VALID,123,VALID,0.934048,
2006-04-15, 03:04:00,VALID,918.943,VALID,0,VALID,100,VALID,-0.254712,VALID,18.3312,VALID,109,VALID,0.84157,
2006-04-15, 03:05:00,VALID,918.923,VALID,0,VALID,100,VALID,-0.220751,VALID,18.8664,VALID,82,VALID,0.590353,
2006-04-15, 03:06:00,VALID,918.915,VALID,0,VALID,100,VALID,-0.220751,VALID,18.7084,VALID,73,VALID,0.747275,
2006-04-15, 03:07:01,VALID,918.895,VALID,0,VALID,100,VALID,-0.220751,VALID,18.903,VALID,70,VALID,0.393359,
2006-04-15, 03:08:01,VALID,918.878,VALID,0,VALID,100,VALID,-0.254712,VALID,18.8535,VALID,71,VALID,0.421701,
2006-04-15, 03:09:01,VALID,918.86,VALID,0,VALID,100,VALID,-0.152827,VALID,19.802,VALID,85,VALID,0.400174,
2006-04-15, 03:10:00,VALID,918.853,VALID,0,VALID,100,VALID,-0.152827,VALID,18.0822,VALID,94,VALID,0.825893,
2006-04-15, 03:11:00,VALID,918.84,VALID,0,VALID,100,VALID,-0.152827,VALID,19.3693,VALID,106,VALID,1.05851,
2006-04-15, 03:12:00,VALID,918.833,VALID,0,VALID,100,VALID,-0.169808,VALID,19.278,VALID,112,VALID,0.650977,
2006-04-15, 03:13:00,VALID,918.821,VALID,0,VALID,100,VALID,-0.135847,VALID,18.2706,VALID,123,VALID,0.748698,
2006-04-15, 03:14:00,VALID,918.805,VALID,0,VALID,100,VALID,-0.169808,VALID,19.1285,VALID,120,VALID,0.781072,
2006-04-15, 03:15:00,VALID,918.813,VALID,0,VALID,100,VALID,-0.169808,VALID,19.2091,VALID,94,VALID,0.680556,
2006-04-15, 03:16:00,VALID,918.808,VALID,0,VALID,100,VALID,-0.20377,VALID,18.8793,VALID,101,VALID,0.565476,
2006-04-15, 03:17:00,VALID,918.809,VALID,0,VALID,100,VALID,-0.20377,VALID,18.5304,VALID,106,VALID,0.514737,
2006-04-15, 03:18:00,VALID,918.814,VALID,0,VALID,100,VALID,-0.152827,VALID,19.0463,VALID,127,VALID,0.621354,
2006-04-15, 03:19:01,VALID,918.819,VALID,0,VALID,100,VALID,-0.186789,VALID,18.0348,VALID,151,VALID,0.747713,
2006-04-15, 03:20:01,VALID,918.823,VALID,0,VALID,100,VALID,-0.169808,VALID,18.9448,VALID,145,VALID,0.371466,
2006-04-15, 03:21:01,VALID,918.807,VALID,0,VALID,100,VALID,-0.271693,VALID,18.4236,VALID,145,VALID,0.382994,
2006-04-15, 03:22:00,VALID,918.807,VALID,0,VALID,100,VALID,-0.169808,VALID,18.6477,VALID,145,VALID,0.368075,
2006-04-15, 03:23:00,VALID,918.8,VALID,0,VALID,100,VALID,-0.20377,VALID,18.5452,VALID,145,VALID,0.194141,
2006-04-15, 03:24:01,VALID,918.795,VALID,0,VALID,100,VALID,-0.169808,VALID,18.2142,VALID,153,VALID,0.230078,
2006-04-15, 03:25:00,VALID,918.775,VALID,0,VALID,100,VALID,-0.152827,VALID,19.1494,VALID,197,VALID,0.373785,
2006-04-15, 03:26:00,VALID,918.75,VALID,0,VALID,100,VALID,-0.186789,VALID,18.3721,VALID,264,VALID,0.494318,
2006-04-15, 03:27:01,VALID,918.739,VALID,0,VALID,100,VALID,-0.186789,VALID,19.2061,VALID,294,VALID,0.567708,
2006-04-15, 03:28:01,VALID,918.714,VALID,0,VALID,100,VALID,-0.186789,VALID,18.4997,VALID,294,VALID,0.147135,
2006-04-15, 03:29:00,VALID,918.708,VALID,0,VALID,100,VALID,-0.751571,VALID,18.8342,VALID,294,VALID,0.217969,
2006-04-15, 03:30:01,VALID,918.702,VALID,0,VALID,100,VALID,-0.271693,VALID,18.6872,VALID,294,VALID,0.0654762,
2006-04-15, 03:31:00,VALID,918.68,VALID,0,VALID,100,VALID,-0.254712,VALID,18.943,VALID,294,VALID,0,
2006-04-15, 03:32:00,VALID,918.681,VALID,0,VALID,100,VALID,-0.20377,VALID,19.4362,VALID,294,VALID,0,
2006-04-15, 03:33:00,VALID,918.671,VALID,0,VALID,100,VALID,-0.169808,VALID,18.6401,VALID,294,VALID,0.0326705,
2006-04-15, 03:34:01,VALID,918.654,VALID,0,VALID,100,VALID,-0.271693,VALID,18.3161,VALID,294,VALID,0,
2006-04-15, 03:35:01,VALID,918.649,VALID,0,VALID,100,VALID,-0.237732,VALID,18.6222,VALID,294,VALID,0,